Tracking 29892 objects as of 21-Nov-2024
HD Live streaming from Space Station
objects crossing your sky now

STARLINK-3158

Track STARLINK-3158 now!
10-day predictions
STARLINK-3158 is classified as:


NORAD ID: 49432
Int'l Code: 2021-104AA
Perigee: 545.9 km
Apogee: 547.9 km
Inclination: 53.2 °
Period: 95.4 minutes
Semi major axis: 6917 km
RCS: Unknown
Launch date: November 13, 2021
Source: United States (US)
Launch site: AIR FORCE EASTERN TEST RANGE (AFETR)
Your satellite tracking list
Your tracking list is empty




NASA's NSSDC Master Catalog

Two Line Element Set (TLE):
1 49432U 21104AA  24325.02273633  .00000505  00000-0  49847-4 0  9998
2 49432  53.2154 189.9819 0001408  88.0876 272.0277 15.08837670168196
Source of the keplerian elements: AFSPC